Weather History for KSGF - April, 2013

Change the Weather History Date:

Tuesday, April 23, 2013

  Actual Average Record
Temperature  
Mean Temperature 48 °F 58 °F  
Max Temperature 60 °F 69 °F 88 °F (1965)
Min Temperature 36 °F 47 °F 28 °F (1956)
Degree Days  
Heating Degree Days 17 8  
Month to date heating degree days 267 253  
Since 1 July heating degree days 4282 4427  
Cooling Degree Days 0 1  
Month to date cooling degree days 9 16  
Year to date cooling degree days 9 19  
Moisture  
Dew Point 44 °F    
Average Humidity 78    
Maximum Humidity 100    
Minimum Humidity 55    
Precipitation  
Precipitation 0.50 in 0.16 in 1.75 in (1953)
Month to date precipitation 3.70 3.15  
Year to date precipitation 13.81 11.76  
Snow  
Snow 0.00 in - - ()
Month to date snowfall T  
Since 1 July snowfall 11.3  
Snow Depth 0.00 in    
Sea Level Pressure  
Sea Level Pressure 29.97 in    
Wind  
Wind Speed 13 mph (North)    
Max Wind Speed 22 mph    
Max Gust Speed 26 mph    
Visibility 6 miles    
Events Fog , Rain , Snow , Thunderstorm    
T = Trace of Precipitation, MM = Missing Value Source: NWS Daily Summary

Daily Weather History Graph

Daily Weather History Graph

Search for Another Location

Airport or City:

Trip Planner

Search our weather history database for the weather conditions in past years. The results will help you decide how hot, cold, wet, or windy it might be!

Date:

Astronomy

Apr. 23, 2013 Rise Set
Actual Time 6:28 AM CDT 7:56 PM CDT
Civil Twilight 6:00 AM CDT 8:23 PM CDT
Nautical Twilight 5:27 AM CDT 8:56 PM CDT
Astronomical Twilight 4:53 AM CDT 9:31 PM CDT
Moon 5:54 PM CDT (4/23) 4:53 AM CDT (4/23)
Length of Visible Light 14h 22m
Length of Day
13h 27m
Waxing Gibbous, 94% of the Moon is Illuminated
Apr 23
Waxing Gibbous
Apr 25
Full
May 2
Last Quarter
May 9
New
May 17
First Quarter

Hourly Weather History & Observations

Time (CDT) Temp. Windchill Dew Point Humidity Pressure Visibility Wind Dir Wind Speed Gust Speed Precip Events Conditions
12:52 AM 60.1 °F - 44.1 °F 55% 29.92 in 10.0 mi South 16.1 mph - N/A   Clear
1:52 AM 60.1 °F - 44.1 °F 55% 29.93 in 10.0 mi SSE 12.7 mph - N/A   Mostly Cloudy
2:52 AM 59.0 °F - 44.6 °F 59% 29.94 in 10.0 mi SSE 10.4 mph - N/A   Overcast
3:52 AM 57.9 °F - 45.0 °F 62% 29.87 in 10.0 mi NNE 5.8 mph - N/A   Mostly Cloudy
4:52 AM 55.0 °F - 48.0 °F 77% 29.88 in 10.0 mi NNW 3.5 mph - 0.00 in   Overcast
5:52 AM 53.1 °F - 50.0 °F 89% 29.90 in 7.0 mi NNE 10.4 mph - 0.05 in Rain Rain
6:50 AM 51.8 °F - 51.8 °F 100% 29.94 in 2.5 mi North 11.5 mph - 0.10 in Rain , Thunderstorm Heavy Thunderstorms and Rain
6:52 AM 52.0 °F - 51.1 °F 97% 29.93 in 2.5 mi North 13.8 mph - 0.13 in Rain , Thunderstorm Heavy Thunderstorms and Rain
7:02 AM 52.0 °F - 51.1 °F 97% 29.95 in 2.5 mi NNE 9.2 mph - 0.12 in Rain , Thunderstorm Heavy Thunderstorms and Rain
7:12 AM 52.0 °F - 51.1 °F 97% 29.94 in 4.0 mi NNE 13.8 mph - 0.15 in Rain , Thunderstorm Thunderstorms and Rain
7:39 AM 52.0 °F - 51.1 °F 97% 29.92 in 9.0 mi NE 12.7 mph - 0.18 in Rain , Thunderstorm Light Thunderstorms and Rain
7:43 AM 52.0 °F - 51.1 °F 97% 29.93 in 8.0 mi NE 10.4 mph - 0.18 in Rain Light Rain
7:52 AM 52.0 °F - 51.1 °F 97% 29.92 in 8.0 mi NE 10.4 mph - 0.18 in Rain Light Rain
7:57 AM 52.0 °F - 51.1 °F 97% 29.96 in 8.0 mi North 10.4 mph - 0.00 in Rain , Thunderstorm Light Thunderstorms and Rain
8:28 AM 52.0 °F - 51.1 °F 97% 29.94 in 8.0 mi NE 11.5 mph - 0.05 in Rain , Thunderstorm Light Rain
8:42 AM 52.0 °F - 51.1 °F 97% 29.93 in 9.0 mi ENE 13.8 mph - 0.05 in   Overcast
8:52 AM 52.0 °F - 51.1 °F 97% 29.92 in 10.0 mi ENE 13.8 mph - 0.05 in   Overcast
9:52 AM 53.1 °F - 51.1 °F 93% 29.94 in 9.0 mi NNE 8.1 mph - 0.00 in   Overcast
10:16 AM 53.1 °F - 51.1 °F 93% 29.93 in 6.0 mi East 8.1 mph - 0.00 in Rain Light Rain
10:52 AM 53.1 °F - 52.0 °F 96% 29.93 in 10.0 mi East 6.9 mph - 0.01 in   Overcast
11:09 AM 53.1 °F - 51.1 °F 93% 29.95 in 8.0 mi NW 10.4 mph - 0.00 in Rain Light Rain
11:18 AM 46.9 °F - 46.0 °F 97% 29.95 in 7.0 mi NNW 15.0 mph 23.0 mph 0.00 in Rain Light Rain
11:52 AM 46.0 °F 39.9 °F 45.0 °F 96% 29.94 in 1.0 mi NNW 13.8 mph - 0.00 in Rain Light Rain
11:59 AM 45.0 °F 38.5 °F 44.1 °F 97% 29.94 in 2.5 mi NNW 13.8 mph - 0.00 in Rain Light Rain
12:03 PM 45.0 °F 37.9 °F 44.1 °F 97% 29.95 in 0.1 mi NNW 16.1 mph - 0.00 in Fog , Rain Light Rain
12:52 PM 44.1 °F 38.1 °F 43.0 °F 96% 29.95 in 0.1 mi North 11.5 mph - 0.00 in Fog Fog
12:59 PM 43.0 °F 35.7 °F 42.1 °F 97% 29.95 in 1.0 mi NNW 15.0 mph - N/A   Mist
1:24 PM 43.0 °F 35.4 °F 42.1 °F 97% 29.94 in 3.0 mi North 16.1 mph - N/A   Overcast
1:52 PM 42.1 °F 34.9 °F 41.0 °F 96% 29.95 in 7.0 mi NNW 13.8 mph - N/A   Overcast
2:32 PM 42.1 °F 35.7 °F 39.9 °F 92% 29.96 in 7.0 mi North 11.5 mph - 0.00 in Rain Light Rain
2:52 PM 41.0 °F 32.8 °F 39.0 °F 93% 29.96 in 4.0 mi North 16.1 mph - 0.00 in Rain Light Rain
3:52 PM 39.9 °F 31.8 °F 37.9 °F 93% 29.96 in 3.0 mi NNW 15.0 mph - 0.02 in Rain Light Rain
4:52 PM 39.0 °F 29.6 °F 37.0 °F 93% 29.98 in 3.0 mi NNW 18.4 mph - 0.00 in Rain Light Rain
5:21 PM 39.0 °F 30.3 °F 37.0 °F 93% 29.98 in 4.0 mi North 16.1 mph - 0.02 in Rain Light Rain
5:49 PM 37.4 °F 28.5 °F 37.4 °F 100% 29.98 in 2.5 mi NNW 15.0 mph - 0.02 in Rain Light Rain
5:52 PM 37.9 °F 28.9 °F 37.0 °F 97% 29.99 in 2.0 mi NNW 16.1 mph - 0.02 in Snow Light Snow
6:45 PM 37.0 °F 26.7 °F 36.0 °F 96% 30.00 in 3.0 mi NNW 19.6 mph - 0.03 in Rain Light Rain
6:52 PM 37.0 °F 27.7 °F 36.0 °F 96% 30.01 in 3.0 mi North 16.1 mph - 0.03 in Snow Light Snow
6:59 PM 37.9 °F 28.5 °F 36.0 °F 93% 30.00 in 2.5 mi North 17.3 mph - 0.00 in Rain Light Rain
7:06 PM 37.0 °F 28.1 °F 36.0 °F 96% 30.00 in 4.0 mi NNW 15.0 mph - 0.00 in Rain Light Rain
7:52 PM 37.0 °F 27.4 °F 35.1 °F 93% 30.03 in 4.0 mi NNW 17.3 mph - 0.01 in Rain Light Rain
8:52 PM 36.0 °F 26.7 °F 35.1 °F 97% 30.07 in 5.0 mi NNW 15.0 mph - 0.00 in Rain Light Rain
9:52 PM 36.0 °F 26.3 °F 35.1 °F 97% 30.09 in 7.0 mi North 16.1 mph - 0.00 in Rain Light Rain
10:15 PM 37.0 °F 28.9 °F 35.1 °F 93% 30.08 in 9.0 mi NNW 12.7 mph - 0.00 in   Overcast
10:32 PM 37.0 °F 29.3 °F 35.1 °F 93% 30.09 in 5.0 mi NNW 11.5 mph - 0.00 in Rain Light Rain
10:52 PM 36.0 °F 27.5 °F 35.1 °F 97% 30.10 in 7.0 mi North 12.7 mph - 0.00 in   Overcast
11:52 PM 37.0 °F 27.7 °F 35.1 °F 93% 30.09 in 8.0 mi North 16.1 mph - N/A   Overcast